Have a Safe July 4th! 

Flight Track Log - Related Links

Times and Time Zones

All times are in EDT time to prevent confusion due to time zone crossing. See the DAL5880 flight status page for this flight to view local times or setup timezone preferences in your user account.

Time Position Orientation Groundspeed Altitude Reporting Facility
EDT Latitude Longitude Course Direction KTS MPH feet Rate Location/Type
Fri 01:12:15 PM 40.8333 -73.8333 48° Northeast 198 228 3,100  Level New York TRACON
Fri 01:13:15 PM 40.8833 -73.7833 37° Northeast 256 295 6,400 3,450 Climbing New York TRACON
Fri 01:14:00 PM 41.0394 -73.5513 41° Northeast  Level FlightAware Approximate
Fri 01:14:15 PM 40.9500 -73.7167 37° Northeast 283 326 10,000  Level New York TRACON
Fri 01:15:00 PM 41.1075 -73.4689 44° Northeast  Level FlightAware Approximate
Fri 01:15:15 PM 41.0000 -73.6500 45° Northeast 316 364 13,300  Level New York TRACON
Fri 01:16:00 PM 41.1738 -73.3838 44° Northeast  Level FlightAware Approximate
Fri 01:16:15 PM 41.0667 -73.5667 43° Northeast 334 384 16,300  Level New York TRACON
Fri 01:17:00 PM 41.2318 -73.3024 48° Northeast  Level FlightAware Approximate
Fri 01:18:24 PM 41.2064 -73.3781 45° Northeast 326 375 17,000  Level Boston Center
Fri 01:19:24 PM 41.2761 -73.2853 45° Northeast 333 383 18,400 1,017 Climbing Boston Center
Fri 01:20:22 PM 41.3475 -73.1867 46° Northeast 352 405 19,000 303 Climbing Boston Center
Fri 01:21:23 PM 41.3900 -73.0736 63° Northeast 358 412 19,000  Level Boston Center
Fri 01:22:23 PM 41.4031 -72.9328 83° East 356 410 19,000 50 Level Boston Center
Fri 01:23:24 PM 41.4036 -72.8331 90° East 369 425 19,100 992 Climbing Boston Center
Fri 01:24:24 PM 41.3914 -72.6669 96° East 374 430 21,000 942 Climbing Boston Center
Fri 01:25:25 PM 41.3583 -72.5397 109° East 368 423 21,000  Level Boston Center
Fri 01:26:23 PM 41.3939 -72.4181 69° East 346 398 21,000  Level Boston Center
Fri 01:27:35 PM 41.4394 -72.2989 63° Northeast 341 392 21,000  Level Boston Center
Fri 01:28:36 PM 41.4267 -72.1494 96° East 309 356 21,000 -50 Level Boston Center
Fri 01:29:36 PM 41.3994 -72.0556 111° Southeast 309 356 20,900 -992 Descending Boston Center
Fri 01:30:37 PM 41.3614 -71.9172 110° East 329 379 19,000 -1,729 Descending Boston Center
Fri 01:31:34 PM 41.3942 -71.8175 66° East 296 341 17,500 -1,576 Descending Boston Center
Fri 01:32:35 PM 41.4686 -71.7308 41° Northeast 294 338 15,900 -1,537 Descending Boston Center
Fri 01:33:35 PM 41.5369 -71.6497 42° Northeast 317 365 14,400 -1,289 Descending Boston Center
Fri 01:34:36 PM 41.6094 -71.5822 35° Northeast 323 372 13,300 -1,311 Descending Boston Center
Fri 01:35:34 PM 41.6861 -71.5339 25° Northeast 301 346 11,800 -1,169 Descending Boston Center
Fri 01:36:34 PM 41.7503 -71.4883 28° Northeast 296 341 11,000 -397 Descending Boston Center
Fri 01:37:35 PM 41.7933 -71.3958 58° Northeast 275 316 11,000  Level Boston Center
Fri 01:38:36 PM 41.8153 -71.2981 73° East 280 322 11,000  Level Boston Center
Fri 01:39:36 PM 41.8431 -71.1806 72° East 294 338 11,000  Level Boston Center
Fri 01:40:46 PM 41.8733 -71.0850 67° East 301 346 11,000  Level Boston Center
Fri 01:41:16 PM 41.9000 -71.0000 67° East 307 353 11,000  Level KA90
Fri 01:42:16 PM 41.9500 -70.9000 56° Northeast 297 342 11,000  Level KA90
Fri 01:42:47 PM 41.9644 -70.8681 59° Northeast 279 321 11,000  Level Boston Center
Fri 01:43:48 PM 42.0008 -70.7917 57° Northeast 260 299 11,000 -595 Level Boston Center
Fri 01:44:48 PM 42.0475 -70.7150 51° Northeast 255 293 9,800 -1,190 Descending Boston Center
Fri 01:45:49 PM 42.0964 -70.6439 47° Northeast 255 293 8,600 -1,210 Descending Boston Center
Fri 01:46:47 PM 42.1411 -70.5725 50° Northeast 250 288 7,400 -1,169 Descending Boston Center
Fri 01:47:47 PM 42.1947 -70.5344 28° Northeast 218 251 6,300 -1,038 Descending Boston Center
Fri 01:49:00 PM 42.2556 -70.5636 340° North 196 226 5,100 -595 Descending Boston Center
Fri 01:49:58 PM 42.3203 -70.5700 356° North 196 226 5,000 -50 Descending Boston Center
Fri 01:50:59 PM 42.3547 -70.5128 51° Northeast 163 188 5,000 -485 Level Boston Center
Fri 01:53:16 PM 42.4000 -70.6833 290° West 219 252 3,400 -609 Descending KA90
Fri 01:54:16 PM 42.4000 -70.7833 270° West 235 270 3,000 -400 Descending KA90

Login

Don't have an account? Register now (free) for customized features, flight alerts, and more!